Year,Month,Day,Hour,Minute,Value (Times are PST for temperature in C)
2006,07,25,00,00,16.10
2006,07,25,00,01,16.10
2006,07,25,00,02,16.10
2006,07,25,00,03,16.10
2006,07,25,00,04,16.10
2006,07,25,00,05,16.10
2006,07,25,00,06,16.10
2006,07,25,00,07,16.10
2006,07,25,00,08,16.10
2006,07,25,00,09,16.20
2006,07,25,00,10,16.20
2006,07,25,00,11,16.20
2006,07,25,00,12,16.20
2006,07,25,00,13,16.30
2006,07,25,00,14,16.30
2006,07,25,00,15,16.30
2006,07,25,00,16,16.30
2006,07,25,00,17,16.30
2006,07,25,00,18,16.20
2006,07,25,00,19,16.20
2006,07,25,00,20,16.20
2006,07,25,00,21,16.20
2006,07,25,00,22,16.20
2006,07,25,00,23,16.20
2006,07,25,00,24,16.20
2006,07,25,00,25,16.20
2006,07,25,00,26,16.20
2006,07,25,00,27,16.20
2006,07,25,00,28,16.20
2006,07,25,00,29,16.20
2006,07,25,00,30,16.10
2006,07,25,00,31,16.10
2006,07,25,00,32,16.10
2006,07,25,00,33,16.10
2006,07,25,00,34,16.10
2006,07,25,00,35,16.10
2006,07,25,00,36,16.10
2006,07,25,00,37,16.10
2006,07,25,00,38,16.20
2006,07,25,00,39,16.20
2006,07,25,00,40,16.20
2006,07,25,00,41,16.20
2006,07,25,00,42,16.10
2006,07,25,00,43,16.10
2006,07,25,00,44,16.10
2006,07,25,00,45,16.10
2006,07,25,00,46,16.10
2006,07,25,00,47,16.10
2006,07,25,00,48,16.10
2006,07,25,00,49,16.10
2006,07,25,00,50,16.10
2006,07,25,00,51,16.10
2006,07,25,00,52,16.10
2006,07,25,00,53,16.10
2006,07,25,00,54,16.10
2006,07,25,00,55,16.10
2006,07,25,00,56,16.10
2006,07,25,00,57,16.10
2006,07,25,00,58,16.10
2006,07,25,00,59,16.10
2006,07,25,01,00,16.10
2006,07,25,01,01,16.10
2006,07,25,01,02,16.10
2006,07,25,01,03,16.10
2006,07,25,01,04,16.10
2006,07,25,01,05,16.10
2006,07,25,01,06,16.10
2006,07,25,01,07,16.10
2006,07,25,01,08,16.10
2006,07,25,01,09,16.10
2006,07,25,01,10,16.10
2006,07,25,01,11,16.10
2006,07,25,01,12,16.10
2006,07,25,01,13,16.10
2006,07,25,01,14,16.00
2006,07,25,01,15,15.90
2006,07,25,01,16,15.90
2006,07,25,01,17,15.90
2006,07,25,01,18,15.80
2006,07,25,01,19,15.80
2006,07,25,01,20,15.80
2006,07,25,01,21,15.80
2006,07,25,01,22,15.80
2006,07,25,01,23,15.80
2006,07,25,01,24,15.70
2006,07,25,01,25,15.70
2006,07,25,01,26,15.70
2006,07,25,01,27,15.60
2006,07,25,01,28,15.60
2006,07,25,01,29,15.60
2006,07,25,01,30,15.60
2006,07,25,01,31,15.50
2006,07,25,01,32,15.50
2006,07,25,01,33,15.50
2006,07,25,01,34,15.50
2006,07,25,01,35,15.50
2006,07,25,01,36,15.50
2006,07,25,01,37,15.50
2006,07,25,01,38,15.50
2006,07,25,01,39,15.50
2006,07,25,01,40,15.50
2006,07,25,01,41,15.50
2006,07,25,01,42,15.50
2006,07,25,01,43,15.50
2006,07,25,01,44,15.60
2006,07,25,01,45,15.60
2006,07,25,01,46,15.60
2006,07,25,01,47,15.50
2006,07,25,01,48,15.50
2006,07,25,01,49,15.50
2006,07,25,01,50,15.50
2006,07,25,01,51,15.50
2006,07,25,01,52,15.50
2006,07,25,01,53,15.40
2006,07,25,01,54,15.40
2006,07,25,01,55,15.40
2006,07,25,01,56,15.40
2006,07,25,01,57,15.30
2006,07,25,01,58,15.30
2006,07,25,01,59,15.30
2006,07,25,02,00,15.30
2006,07,25,02,01,15.30
2006,07,25,02,02,15.30
2006,07,25,02,03,15.30
2006,07,25,02,04,15.30
2006,07,25,02,05,15.30
2006,07,25,02,06,15.20
2006,07,25,02,07,15.10
2006,07,25,02,08,15.10
2006,07,25,02,09,15.10
2006,07,25,02,10,15.00
2006,07,25,02,11,15.00
2006,07,25,02,12,15.00
2006,07,25,02,13,15.00
2006,07,25,02,14,15.00
2006,07,25,02,15,15.00
2006,07,25,02,16,15.00
2006,07,25,02,17,15.00
2006,07,25,02,18,15.10
2006,07,25,02,19,15.10
2006,07,25,02,20,15.10
2006,07,25,02,21,15.00
2006,07,25,02,22,15.00
2006,07,25,02,23,15.00
2006,07,25,02,24,15.00
2006,07,25,02,25,15.00
2006,07,25,02,26,15.00
2006,07,25,02,27,15.00
2006,07,25,02,28,15.00
2006,07,25,02,29,14.90
2006,07,25,02,30,14.90
2006,07,25,02,31,14.90
2006,07,25,02,32,14.90
2006,07,25,02,33,14.90
2006,07,25,02,34,14.90
2006,07,25,02,35,14.80
2006,07,25,02,36,14.80
2006,07,25,02,37,14.80
2006,07,25,02,38,14.80
2006,07,25,02,39,14.70
2006,07,25,02,40,14.70
2006,07,25,02,41,14.70
2006,07,25,02,42,14.70
2006,07,25,02,43,14.70
2006,07,25,02,44,14.70
2006,07,25,02,45,14.70
2006,07,25,02,46,14.60
2006,07,25,02,47,14.60
2006,07,25,02,48,14.60
2006,07,25,02,49,14.60
2006,07,25,02,50,14.60
2006,07,25,02,51,14.60
2006,07,25,02,52,14.60
2006,07,25,02,53,14.60
2006,07,25,02,54,14.60
2006,07,25,02,55,14.60
2006,07,25,02,56,14.70
2006,07,25,02,57,14.70
2006,07,25,02,58,14.70
2006,07,25,02,59,14.70
2006,07,25,03,00,14.70
2006,07,25,03,01,14.70
2006,07,25,03,02,14.70
2006,07,25,03,03,14.70
2006,07,25,03,04,14.70
2006,07,25,03,05,14.70
2006,07,25,03,06,14.70
2006,07,25,03,07,14.70
2006,07,25,03,08,14.70
2006,07,25,03,09,14.70
2006,07,25,03,10,14.70
2006,07,25,03,11,14.70
2006,07,25,03,12,14.70
2006,07,25,03,13,14.70
2006,07,25,03,14,14.70
2006,07,25,03,15,14.70
2006,07,25,03,16,14.70
2006,07,25,03,17,14.70
2006,07,25,03,18,14.80
2006,07,25,03,19,14.70
2006,07,25,03,20,14.80
2006,07,25,03,21,14.70
2006,07,25,03,22,14.70
2006,07,25,03,23,14.70
2006,07,25,03,24,14.70
2006,07,25,03,25,14.70
2006,07,25,03,26,14.70
2006,07,25,03,27,14.70
2006,07,25,03,28,14.70
2006,07,25,03,29,14.70
2006,07,25,03,30,14.70
2006,07,25,03,31,14.70
2006,07,25,03,32,14.70
2006,07,25,03,33,14.70
2006,07,25,03,34,14.70
2006,07,25,03,35,14.70
2006,07,25,03,36,14.70
2006,07,25,03,37,14.70
2006,07,25,03,38,14.70
2006,07,25,03,39,14.70
2006,07,25,03,40,14.70
2006,07,25,03,41,14.70
2006,07,25,03,42,14.80
2006,07,25,03,43,14.80
2006,07,25,03,44,14.80
2006,07,25,03,45,14.80
2006,07,25,03,46,14.80
2006,07,25,03,47,14.80
2006,07,25,03,48,14.80
2006,07,25,03,49,14.80
2006,07,25,03,50,14.80
2006,07,25,03,51,14.80
2006,07,25,03,52,14.80
2006,07,25,03,53,14.80
2006,07,25,03,54,14.80
2006,07,25,03,55,14.80
2006,07,25,03,56,14.80
2006,07,25,03,57,14.80
2006,07,25,03,58,14.80
2006,07,25,03,59,14.80
2006,07,25,04,00,14.80
2006,07,25,04,01,14.80
2006,07,25,04,02,14.80
2006,07,25,04,03,14.80
2006,07,25,04,04,14.80
2006,07,25,04,05,14.80
2006,07,25,04,06,14.80
2006,07,25,04,07,14.70
2006,07,25,04,08,14.70
2006,07,25,04,09,14.70
2006,07,25,04,10,14.70
2006,07,25,04,11,14.70
2006,07,25,04,12,14.70
2006,07,25,04,13,14.70
2006,07,25,04,14,14.70
2006,07,25,04,15,14.70
2006,07,25,04,16,14.70
2006,07,25,04,17,14.70
2006,07,25,04,18,14.70
2006,07,25,04,19,14.60
2006,07,25,04,20,14.60
2006,07,25,04,21,14.60
2006,07,25,04,22,14.60
2006,07,25,04,23,14.60
2006,07,25,04,24,14.60
2006,07,25,04,25,14.60
2006,07,25,04,26,14.60
2006,07,25,04,27,14.60
2006,07,25,04,28,14.60
2006,07,25,04,29,14.60
2006,07,25,04,30,14.60
2006,07,25,04,31,14.60
2006,07,25,04,32,14.60
2006,07,25,04,33,14.60
2006,07,25,04,34,14.60
2006,07,25,04,35,14.60
2006,07,25,04,36,14.70
2006,07,25,04,37,14.70
2006,07,25,04,38,14.70
2006,07,25,04,39,14.70
2006,07,25,04,40,14.70
2006,07,25,04,41,14.70
2006,07,25,04,42,14.70
2006,07,25,04,43,14.70
2006,07,25,04,44,14.70
2006,07,25,04,45,14.60
2006,07,25,04,46,14.60
2006,07,25,04,47,14.60
2006,07,25,04,48,14.60
2006,07,25,04,49,14.60
2006,07,25,04,50,14.60
2006,07,25,04,51,14.60
2006,07,25,04,52,14.60
2006,07,25,04,53,14.60
2006,07,25,04,54,14.60
2006,07,25,04,55,14.60
2006,07,25,04,56,14.60
2006,07,25,04,57,14.60
2006,07,25,04,58,14.50
2006,07,25,04,59,14.50
2006,07,25,05,00,14.50
2006,07,25,05,01,14.50
2006,07,25,05,02,14.50
2006,07,25,05,03,14.50
2006,07,25,05,04,14.50
2006,07,25,05,05,14.50
2006,07,25,05,06,14.50
2006,07,25,05,07,14.50
2006,07,25,05,08,14.50
2006,07,25,05,09,14.50
2006,07,25,05,10,14.50
2006,07,25,05,11,14.50
2006,07,25,05,12,14.50
2006,07,25,05,13,14.50
2006,07,25,05,14,14.50
2006,07,25,05,15,14.50
2006,07,25,05,16,14.50
2006,07,25,05,17,14.50
2006,07,25,05,18,14.50
2006,07,25,05,19,14.50
2006,07,25,05,20,14.50
2006,07,25,05,21,14.50
2006,07,25,05,22,14.50
2006,07,25,05,23,14.50
2006,07,25,05,24,14.40
2006,07,25,05,25,14.40
2006,07,25,05,26,14.40
2006,07,25,05,27,14.40
2006,07,25,05,28,14.40
2006,07,25,05,29,14.40
2006,07,25,05,30,14.40
2006,07,25,05,31,14.40
2006,07,25,05,32,14.30
2006,07,25,05,33,14.30
2006,07,25,05,34,14.30
2006,07,25,05,35,14.30
2006,07,25,05,36,14.30
2006,07,25,05,37,14.30
2006,07,25,05,38,14.30
2006,07,25,05,39,14.30
2006,07,25,05,40,14.20
2006,07,25,05,41,14.20
2006,07,25,05,42,14.20
2006,07,25,05,43,14.20
2006,07,25,05,44,14.20
2006,07,25,05,45,14.20
2006,07,25,05,46,14.20
2006,07,25,05,47,14.20
2006,07,25,05,48,14.20
2006,07,25,05,49,14.20
2006,07,25,05,50,14.20
2006,07,25,05,51,14.20
2006,07,25,05,52,14.20
2006,07,25,05,53,14.20
2006,07,25,05,54,14.20
2006,07,25,05,55,14.20
2006,07,25,05,56,14.20
2006,07,25,05,57,14.20
2006,07,25,05,58,14.10
2006,07,25,05,59,14.10
2006,07,25,06,00,14.10
2006,07,25,06,01,14.10
2006,07,25,06,02,14.00
2006,07,25,06,03,14.00
2006,07,25,06,04,14.00
2006,07,25,06,05,13.90
2006,07,25,06,06,13.90
2006,07,25,06,07,13.90
2006,07,25,06,08,13.90
2006,07,25,06,09,13.90
2006,07,25,06,10,13.80
2006,07,25,06,11,13.80
2006,07,25,06,12,13.70
2006,07,25,06,13,13.70
2006,07,25,06,14,13.70
2006,07,25,06,15,13.70
2006,07,25,06,16,13.70
2006,07,25,06,17,13.70
2006,07,25,06,18,13.70
2006,07,25,06,19,13.70
2006,07,25,06,20,13.70
2006,07,25,06,21,13.70
2006,07,25,06,22,13.80
2006,07,25,06,23,13.80
2006,07,25,06,24,13.80
2006,07,25,06,25,13.90
2006,07,25,06,26,13.90
2006,07,25,06,27,13.90
2006,07,25,06,28,13.90
2006,07,25,06,29,14.00
2006,07,25,06,30,14.00
2006,07,25,06,31,14.00
2006,07,25,06,32,14.00
2006,07,25,06,33,14.00
2006,07,25,06,34,14.00
2006,07,25,06,35,14.00
2006,07,25,06,36,14.00
2006,07,25,06,37,14.10
2006,07,25,06,38,14.10
2006,07,25,06,39,14.10
2006,07,25,06,40,14.10
2006,07,25,06,41,14.10
2006,07,25,06,42,14.10
2006,07,25,06,43,14.10
2006,07,25,06,44,14.20
2006,07,25,06,45,14.20
2006,07,25,06,46,14.20
2006,07,25,06,47,14.20
2006,07,25,06,48,14.20
2006,07,25,06,49,14.20
2006,07,25,06,50,14.20
2006,07,25,06,51,14.20
2006,07,25,06,52,14.30
2006,07,25,06,53,14.30
2006,07,25,06,54,14.30
2006,07,25,06,55,14.40
2006,07,25,06,56,14.40
2006,07,25,06,57,14.40
2006,07,25,06,58,14.50
2006,07,25,06,59,14.50
2006,07,25,07,00,14.50
2006,07,25,07,01,14.60
2006,07,25,07,02,14.60
2006,07,25,07,03,14.60
2006,07,25,07,04,14.70
2006,07,25,07,05,14.70
2006,07,25,07,06,14.80
2006,07,25,07,07,14.80
2006,07,25,07,08,14.80
2006,07,25,07,09,14.80
2006,07,25,07,10,14.90
2006,07,25,07,11,14.90
2006,07,25,07,12,15.00
2006,07,25,07,13,15.00
2006,07,25,07,14,15.00
2006,07,25,07,15,15.10
2006,07,25,07,16,15.10
2006,07,25,07,17,15.10
2006,07,25,07,18,15.10
2006,07,25,07,19,15.20
2006,07,25,07,20,15.20
2006,07,25,07,21,15.20
2006,07,25,07,22,15.30
2006,07,25,07,23,15.30
2006,07,25,07,24,15.30
2006,07,25,07,25,15.30
2006,07,25,07,26,15.30
2006,07,25,07,27,15.40
2006,07,25,07,28,15.40
2006,07,25,07,29,15.40
2006,07,25,07,30,15.40
2006,07,25,07,31,15.50
2006,07,25,07,32,15.50
2006,07,25,07,33,15.50
2006,07,25,07,34,15.60
2006,07,25,07,35,15.60
2006,07,25,07,36,15.60
2006,07,25,07,37,15.60
2006,07,25,07,38,15.60
2006,07,25,07,39,15.70
2006,07,25,07,40,15.70
2006,07,25,07,41,15.70
2006,07,25,07,42,15.70
2006,07,25,07,43,15.70
2006,07,25,07,44,15.60
2006,07,25,07,45,15.70
2006,07,25,07,46,15.70
2006,07,25,07,47,15.70
2006,07,25,07,48,15.70
2006,07,25,07,49,15.70
2006,07,25,07,50,15.70
2006,07,25,07,51,15.70
2006,07,25,07,52,15.60
2006,07,25,07,53,15.60
2006,07,25,07,54,15.60
2006,07,25,07,55,15.70
2006,07,25,07,56,15.70
2006,07,25,07,57,15.70
2006,07,25,07,58,15.70
2006,07,25,07,59,15.70
2006,07,25,08,00,15.60
2006,07,25,08,01,15.60
2006,07,25,08,02,15.60
2006,07,25,08,03,15.60
2006,07,25,08,04,15.60
2006,07,25,08,05,15.60
2006,07,25,08,06,15.60
2006,07,25,08,07,15.60
2006,07,25,08,08,15.60
2006,07,25,08,09,15.60
2006,07,25,08,10,15.70
2006,07,25,08,11,15.70
2006,07,25,08,12,15.70
2006,07,25,08,13,15.70
2006,07,25,08,14,15.70
2006,07,25,08,15,15.80
2006,07,25,08,16,15.80
2006,07,25,08,17,15.80
2006,07,25,08,18,15.80
2006,07,25,08,19,15.90
2006,07,25,08,20,16.00
2006,07,25,08,21,16.10
2006,07,25,08,22,16.10
2006,07,25,08,23,16.10
2006,07,25,08,24,16.20
2006,07,25,08,25,16.30
2006,07,25,08,26,16.40
2006,07,25,08,27,16.50
2006,07,25,08,28,16.60
2006,07,25,08,29,16.70
2006,07,25,08,30,16.80
2006,07,25,08,31,16.90
2006,07,25,08,32,16.90
2006,07,25,08,33,16.90
2006,07,25,08,34,16.90
2006,07,25,08,35,16.90
2006,07,25,08,36,16.90
2006,07,25,08,37,16.80
2006,07,25,08,38,16.80
2006,07,25,08,39,16.90
2006,07,25,08,40,16.90
2006,07,25,08,41,17.00
2006,07,25,08,42,17.00
2006,07,25,08,43,17.00
2006,07,25,08,44,17.00
2006,07,25,08,45,17.00
2006,07,25,08,46,16.90
2006,07,25,08,47,16.70
2006,07,25,08,48,16.70
2006,07,25,08,49,16.60
2006,07,25,08,50,16.60
2006,07,25,08,51,16.60
2006,07,25,08,52,16.50
2006,07,25,08,53,16.40
2006,07,25,08,54,16.40
2006,07,25,08,55,16.40
2006,07,25,08,56,16.40
2006,07,25,08,57,16.30
2006,07,25,08,58,16.30
2006,07,25,08,59,16.20
2006,07,25,09,00,16.20
2006,07,25,09,01,16.20
2006,07,25,09,02,16.20
2006,07,25,09,03,16.20
2006,07,25,09,04,16.30
2006,07,25,09,05,16.30
2006,07,25,09,06,16.40
2006,07,25,09,07,16.50
2006,07,25,09,08,16.60
2006,07,25,09,09,16.70
2006,07,25,09,10,16.70
2006,07,25,09,11,16.60
2006,07,25,09,12,16.60
2006,07,25,09,13,16.60
2006,07,25,09,14,16.60
2006,07,25,09,15,16.60
2006,07,25,09,16,16.70
2006,07,25,09,17,16.70
2006,07,25,09,18,16.70
2006,07,25,09,19,16.70
2006,07,25,09,20,16.70
2006,07,25,09,21,16.70
2006,07,25,09,22,16.70
2006,07,25,09,23,16.70
2006,07,25,09,24,16.70
2006,07,25,09,25,16.80
2006,07,25,09,26,16.80
2006,07,25,09,27,16.80
2006,07,25,09,28,16.80
2006,07,25,09,29,16.80
2006,07,25,09,30,16.80
2006,07,25,09,31,16.80
2006,07,25,09,32,16.90
2006,07,25,09,33,16.90
2006,07,25,09,34,16.90
2006,07,25,09,35,16.90
2006,07,25,09,36,17.00
2006,07,25,09,37,17.00
2006,07,25,09,38,17.00
2006,07,25,09,39,17.10
2006,07,25,09,40,17.10
2006,07,25,09,41,17.10
2006,07,25,09,42,17.10
2006,07,25,09,43,17.10
2006,07,25,09,44,17.10
2006,07,25,09,45,17.10
2006,07,25,09,46,17.10
2006,07,25,09,47,17.10
2006,07,25,09,48,17.10
2006,07,25,09,49,17.10
2006,07,25,09,50,17.10
2006,07,25,09,51,17.00
2006,07,25,09,52,17.00
2006,07,25,09,53,17.00
2006,07,25,09,54,16.90
2006,07,25,09,55,16.90
2006,07,25,09,56,16.90
2006,07,25,09,57,16.90
2006,07,25,09,58,16.90
2006,07,25,09,59,16.90
2006,07,25,10,00,16.80
2006,07,25,10,01,16.80
2006,07,25,10,02,16.70
2006,07,25,10,03,16.60
2006,07,25,10,04,16.60
2006,07,25,10,05,16.50
2006,07,25,10,06,16.40
2006,07,25,10,07,16.40
2006,07,25,10,08,16.40
2006,07,25,10,09,16.50
2006,07,25,10,10,16.40
2006,07,25,10,11,16.50
2006,07,25,10,12,16.60
2006,07,25,10,13,16.60
2006,07,25,10,14,16.60
2006,07,25,10,15,16.60
2006,07,25,10,16,16.60
2006,07,25,10,17,16.60
2006,07,25,10,18,16.70
2006,07,25,10,19,16.70
2006,07,25,10,20,16.70
2006,07,25,10,21,16.60
2006,07,25,10,22,16.50
2006,07,25,10,23,16.40
2006,07,25,10,24,16.40
2006,07,25,10,25,16.50
2006,07,25,10,26,16.60
2006,07,25,10,27,16.60
2006,07,25,10,28,16.70
2006,07,25,10,29,16.70
2006,07,25,10,30,16.80
2006,07,25,10,31,16.80
2006,07,25,10,32,17.00
2006,07,25,10,33,17.00
2006,07,25,10,34,17.20
2006,07,25,10,35,17.20
2006,07,25,10,36,17.30
2006,07,25,10,37,17.30
2006,07,25,10,38,17.30
2006,07,25,10,39,17.30
2006,07,25,10,40,17.30
2006,07,25,10,41,17.30
2006,07,25,10,42,17.30
2006,07,25,10,43,17.40
2006,07,25,10,44,17.40
2006,07,25,10,45,17.40
2006,07,25,10,46,17.30
2006,07,25,10,47,17.30
2006,07,25,10,48,17.30
2006,07,25,10,49,17.30
2006,07,25,10,50,17.30
2006,07,25,10,51,17.30
2006,07,25,10,52,17.30
2006,07,25,10,53,17.40
2006,07,25,10,54,17.40
2006,07,25,10,55,17.50
2006,07,25,10,56,17.60
2006,07,25,10,57,17.80
2006,07,25,10,58,17.90
2006,07,25,10,59,17.90
2006,07,25,11,00,18.00
2006,07,25,11,01,18.30
2006,07,25,11,02,18.30
2006,07,25,11,03,18.30
2006,07,25,11,04,18.20
2006,07,25,11,05,18.30
2006,07,25,11,06,18.30
2006,07,25,11,07,18.30
2006,07,25,11,08,18.30
2006,07,25,11,09,18.30
2006,07,25,11,10,18.20
2006,07,25,11,11,18.20
2006,07,25,11,12,18.20
2006,07,25,11,13,18.20
2006,07,25,11,14,18.20
2006,07,25,11,15,18.20
2006,07,25,11,16,18.30
2006,07,25,11,17,18.30
2006,07,25,11,18,18.30
2006,07,25,11,19,18.30
2006,07,25,11,20,18.30
2006,07,25,11,21,18.40
2006,07,25,11,22,18.40
2006,07,25,11,23,18.50
2006,07,25,11,24,18.50
2006,07,25,11,25,18.50
2006,07,25,11,26,18.50
2006,07,25,11,27,18.50
2006,07,25,11,28,18.50
2006,07,25,11,29,18.50
2006,07,25,11,30,18.50
2006,07,25,11,31,18.50
2006,07,25,11,32,18.50
2006,07,25,11,33,18.40
2006,07,25,11,34,18.50
2006,07,25,11,35,18.60
2006,07,25,11,36,18.70
2006,07,25,11,37,18.70
2006,07,25,11,38,18.90
2006,07,25,11,39,18.90
2006,07,25,11,40,18.90
2006,07,25,11,41,19.00
2006,07,25,11,42,19.10
2006,07,25,11,43,19.10
2006,07,25,11,44,19.10
2006,07,25,11,45,19.10
2006,07,25,11,46,19.10
2006,07,25,11,47,19.20
2006,07,25,11,48,19.30
2006,07,25,11,49,19.40
2006,07,25,11,50,19.30
2006,07,25,11,51,19.30
2006,07,25,11,52,19.30
2006,07,25,11,53,19.20
2006,07,25,11,54,19.20
2006,07,25,11,55,19.20
2006,07,25,11,56,19.30
2006,07,25,11,57,19.50
2006,07,25,11,58,19.60
2006,07,25,11,59,19.70
2006,07,25,12,00,19.90
2006,07,25,12,01,20.00
2006,07,25,12,02,20.20
2006,07,25,12,03,20.20
2006,07,25,12,04,20.00
2006,07,25,12,05,19.90
2006,07,25,12,06,19.90
2006,07,25,12,07,19.90
2006,07,25,12,08,19.90
2006,07,25,12,09,19.90
2006,07,25,12,10,19.80
2006,07,25,12,11,19.70
2006,07,25,12,12,19.70
2006,07,25,12,13,19.70
2006,07,25,12,14,19.70
2006,07,25,12,15,19.80
2006,07,25,12,16,19.80
2006,07,25,12,17,19.90
2006,07,25,12,18,19.70
2006,07,25,12,19,19.70
2006,07,25,12,20,19.70
2006,07,25,12,21,19.70
2006,07,25,12,22,19.60
2006,07,25,12,23,19.70
2006,07,25,12,24,19.70
2006,07,25,12,25,19.70
2006,07,25,12,26,19.80
2006,07,25,12,27,19.80
2006,07,25,12,28,19.80
2006,07,25,12,29,19.60
2006,07,25,12,30,19.60
2006,07,25,12,31,19.60
2006,07,25,12,32,19.70
2006,07,25,12,33,19.80
2006,07,25,12,34,19.80
2006,07,25,12,35,19.70
2006,07,25,12,36,19.70
2006,07,25,12,37,19.60
2006,07,25,12,38,19.60
2006,07,25,12,39,19.60
2006,07,25,12,40,19.60
2006,07,25,12,41,19.70
2006,07,25,12,42,19.90
2006,07,25,12,43,19.90
2006,07,25,12,44,20.00
2006,07,25,12,45,20.00
2006,07,25,12,46,20.00
2006,07,25,12,47,20.10
2006,07,25,12,48,20.10
2006,07,25,12,49,20.20
2006,07,25,12,50,20.20
2006,07,25,12,51,20.20
2006,07,25,12,52,20.20
2006,07,25,12,53,20.10
2006,07,25,12,54,20.20
2006,07,25,12,55,20.30
2006,07,25,12,56,20.30
2006,07,25,12,57,20.30
2006,07,25,12,58,20.30
2006,07,25,12,59,20.30
2006,07,25,13,00,20.40
2006,07,25,13,01,20.50
2006,07,25,13,02,20.50
2006,07,25,13,03,20.60
2006,07,25,13,04,20.60
2006,07,25,13,05,20.70
2006,07,25,13,06,20.70
2006,07,25,13,07,20.80
2006,07,25,13,08,20.90
2006,07,25,13,09,20.90
2006,07,25,13,10,20.80
2006,07,25,13,11,20.70
2006,07,25,13,12,20.70
2006,07,25,13,13,20.60
2006,07,25,13,14,20.60
2006,07,25,13,15,20.50
2006,07,25,13,16,20.50
2006,07,25,13,17,20.50
2006,07,25,13,18,20.70
2006,07,25,13,19,20.70
2006,07,25,13,20,20.70
2006,07,25,13,21,20.60
2006,07,25,13,22,20.70
2006,07,25,13,23,20.80
2006,07,25,13,24,20.90
2006,07,25,13,25,21.00
2006,07,25,13,26,21.10
2006,07,25,13,27,21.00
2006,07,25,13,28,21.00
2006,07,25,13,29,21.00
2006,07,25,13,30,21.10
2006,07,25,13,31,21.20
2006,07,25,13,32,21.40
2006,07,25,13,33,21.60
2006,07,25,13,34,21.60
2006,07,25,13,35,21.60
2006,07,25,13,36,21.60
2006,07,25,13,37,21.60
2006,07,25,13,38,21.60
2006,07,25,13,39,21.50
2006,07,25,13,40,21.40
2006,07,25,13,41,21.30
2006,07,25,13,42,21.30
2006,07,25,13,43,21.30
2006,07,25,13,44,21.30
2006,07,25,13,45,21.30
2006,07,25,13,46,21.30
2006,07,25,13,47,21.30
2006,07,25,13,48,21.20
2006,07,25,13,49,21.10
2006,07,25,13,50,21.00
2006,07,25,13,51,21.10
2006,07,25,13,52,21.20
2006,07,25,13,53,21.30
2006,07,25,13,54,21.30
2006,07,25,13,55,21.30
2006,07,25,13,56,21.30
2006,07,25,13,57,21.30
2006,07,25,13,58,21.40
2006,07,25,13,59,21.50
2006,07,25,14,00,21.40
2006,07,25,14,01,21.30
2006,07,25,14,02,21.30
2006,07,25,14,03,21.20
2006,07,25,14,04,21.20
2006,07,25,14,05,21.10
2006,07,25,14,06,21.00
2006,07,25,14,07,21.00
2006,07,25,14,08,20.80
2006,07,25,14,09,20.70
2006,07,25,14,10,20.70
2006,07,25,14,11,20.70
2006,07,25,14,12,20.70
2006,07,25,14,13,20.60
2006,07,25,14,14,20.50
2006,07,25,14,15,20.40
2006,07,25,14,16,20.20
2006,07,25,14,17,20.20
2006,07,25,14,18,20.20
2006,07,25,14,19,20.30
2006,07,25,14,20,20.40
2006,07,25,14,21,20.50
2006,07,25,14,22,20.70
2006,07,25,14,23,20.90
2006,07,25,14,24,21.00
2006,07,25,14,25,21.10
2006,07,25,14,26,21.10
2006,07,25,14,27,21.10
2006,07,25,14,28,21.10
2006,07,25,14,29,21.20
2006,07,25,14,30,21.30
2006,07,25,14,31,21.30
2006,07,25,14,32,21.30
2006,07,25,14,33,21.40
2006,07,25,14,34,21.40
2006,07,25,14,35,21.40
2006,07,25,14,36,21.30
2006,07,25,14,37,21.30
2006,07,25,14,38,21.20
2006,07,25,14,39,21.00
2006,07,25,14,40,20.80
2006,07,25,14,41,20.80
2006,07,25,14,42,20.70
2006,07,25,14,43,20.70
2006,07,25,14,44,20.70
2006,07,25,14,45,20.90
2006,07,25,14,46,21.10
2006,07,25,14,47,21.30
2006,07,25,14,48,21.30
2006,07,25,14,49,21.40
2006,07,25,14,50,21.40
2006,07,25,14,51,21.40
2006,07,25,14,52,21.30
2006,07,25,14,53,21.20
2006,07,25,14,54,21.10
2006,07,25,14,55,21.10
2006,07,25,14,56,21.10
2006,07,25,14,57,21.10
2006,07,25,14,58,21.20
2006,07,25,14,59,21.10
2006,07,25,15,00,21.10
2006,07,25,15,01,21.00
2006,07,25,15,02,20.90
2006,07,25,15,03,21.00
2006,07,25,15,04,21.10
2006,07,25,15,05,21.20
2006,07,25,15,06,21.30
2006,07,25,15,07,21.30
2006,07,25,15,08,21.50
2006,07,25,15,09,21.60
2006,07,25,15,10,21.60
2006,07,25,15,11,21.60
2006,07,25,15,12,21.40
2006,07,25,15,13,21.30
2006,07,25,15,14,21.30
2006,07,25,15,15,21.30
2006,07,25,15,16,21.30
2006,07,25,15,17,21.30
2006,07,25,15,18,21.40
2006,07,25,15,19,21.50
2006,07,25,15,20,21.60
2006,07,25,15,21,21.60
2006,07,25,15,22,21.60
2006,07,25,15,23,21.60
2006,07,25,15,24,21.70
2006,07,25,15,25,21.70
2006,07,25,15,26,21.70
2006,07,25,15,27,21.70
2006,07,25,15,28,21.80
2006,07,25,15,29,21.90
2006,07,25,15,30,21.90
2006,07,25,15,31,21.80
2006,07,25,15,32,21.80
2006,07,25,15,33,21.70
2006,07,25,15,34,21.60
2006,07,25,15,35,21.70
2006,07,25,15,36,21.80
2006,07,25,15,37,21.90
2006,07,25,15,38,21.90
2006,07,25,15,39,21.90
2006,07,25,15,40,21.90
2006,07,25,15,41,21.70
2006,07,25,15,42,21.60
2006,07,25,15,43,21.60
2006,07,25,15,44,21.60
2006,07,25,15,45,21.50
2006,07,25,15,46,21.30
2006,07,25,15,47,21.10
2006,07,25,15,48,20.90
2006,07,25,15,49,20.90
2006,07,25,15,50,20.80
2006,07,25,15,51,20.70
2006,07,25,15,52,20.70
2006,07,25,15,53,20.70
2006,07,25,15,54,20.70
2006,07,25,15,55,20.80
2006,07,25,15,56,21.00
2006,07,25,15,57,21.00
2006,07,25,15,58,21.10
2006,07,25,15,59,21.20
2006,07,25,16,00,21.30
2006,07,25,16,01,21.30
2006,07,25,16,02,21.40
2006,07,25,16,03,21.40
2006,07,25,16,04,21.40
2006,07,25,16,05,21.40
2006,07,25,16,06,21.50
2006,07,25,16,07,21.60
2006,07,25,16,08,21.60
2006,07,25,16,09,21.70
2006,07,25,16,10,21.70
2006,07,25,16,11,21.60
2006,07,25,16,12,21.60
2006,07,25,16,13,21.60
2006,07,25,16,14,21.60
2006,07,25,16,15,21.60
2006,07,25,16,16,21.60
2006,07,25,16,17,21.50
2006,07,25,16,18,21.40
2006,07,25,16,19,21.30
2006,07,25,16,20,21.30
2006,07,25,16,21,21.30
2006,07,25,16,22,21.40
2006,07,25,16,23,21.50
2006,07,25,16,24,21.60
2006,07,25,16,25,21.70
2006,07,25,16,26,21.70
2006,07,25,16,27,21.80
2006,07,25,16,28,21.80
2006,07,25,16,29,21.70
2006,07,25,16,30,21.70
2006,07,25,16,31,21.70
2006,07,25,16,32,21.70
2006,07,25,16,33,21.70
2006,07,25,16,34,21.80
2006,07,25,16,35,21.80
2006,07,25,16,36,21.80
2006,07,25,16,37,21.80
2006,07,25,16,38,21.80
2006,07,25,16,39,21.80
2006,07,25,16,40,21.80
2006,07,25,16,41,21.80
2006,07,25,16,42,21.90
2006,07,25,16,43,21.90
2006,07,25,16,44,21.80
2006,07,25,16,45,21.70
2006,07,25,16,46,21.60
2006,07,25,16,47,21.60
2006,07,25,16,48,21.50
2006,07,25,16,49,21.40
2006,07,25,16,50,21.40
2006,07,25,16,51,21.30
2006,07,25,16,52,21.30
2006,07,25,16,53,21.30
2006,07,25,16,54,21.30
2006,07,25,16,55,21.30
2006,07,25,16,56,21.30
2006,07,25,16,57,21.30
2006,07,25,16,58,21.30
2006,07,25,16,59,21.30
2006,07,25,17,00,21.20
2006,07,25,17,01,21.20
2006,07,25,17,02,21.20
2006,07,25,17,03,21.30
2006,07,25,17,04,21.30
2006,07,25,17,05,21.30
2006,07,25,17,06,21.10
2006,07,25,17,07,21.10
2006,07,25,17,08,21.10
2006,07,25,17,09,21.00
2006,07,25,17,10,21.00
2006,07,25,17,11,20.80
2006,07,25,17,12,20.70
2006,07,25,17,13,20.60
2006,07,25,17,14,20.50
2006,07,25,17,15,20.40
2006,07,25,17,16,20.40
2006,07,25,17,17,20.40
2006,07,25,17,18,20.40
2006,07,25,17,19,20.40